Portada
METAR-TAF:

METAR-TAF

Aeroports :

Bom Jesus da Lapa, Bahia, Brasil

latitud: 13-16S, longitud: 043-25W, altitud: 440 m

Observació

L'informe es va fer fa 5 hores i 16 minuts, a les 19:00 UTC
Vent 7 kt del Nord-Est, variant entre Nord i Est
Temperatura 32°C
Humitat 26%
Pressió 1012 hPa
Visibilitat 10 km o més
sense núvols per sota de 1500 mi sense presència de cumulonimbus.

METAR: SBLP 121900Z AUTO 04007KT 360V100 CAVOK 32/10 Q1012

Hora: 21:16 (00:16 UTC)


TAF: manca

Observacions i pronòstics meteorològics de més de 4000 aeroports (METAR i TAF).

Les estacions disponibles són els punts grocs i vermells al mapa.

Posi el ratolí al punt desitjat per veure el nom de l'estació.

Feu clic per veure les observacions i els pronòstics meteorològics.

Per canviar el mapa: feu clic els botons verds amb una creu de color negre per apropar; al botó verd amb un guió per allunyar la imatge; o en les fletxes verdes per a mapes adjacents.


METAR-TAF: